[[{"header":{"parameterUnit":"m.s-1","parameterCategory":2,"la1":30.2991,"la2":30.254,"lo1":-89.0895,"lo2":-89.0444,"dy":0.0017,"dx":0.0017,"nx":28,"ny":28,"refTime":"2024-04-17T03:00:00:Z","depth":"0","parameterNumber":2,"parameterNumberName":"U-component_of_CURRENTS"},"data":[0,0,0,0,0,0,0,0,0,0,0,0,0,0,0,0,0,0,0,0,0,0,0,0,0,0,0,0,0,0,0,0,0,0,0,0,0,0,0,0,0,0,0,0,0,0,0,0,0,0,0,0,0,0,0,0,0,0,-0.1802,-0.1803,0,-0.1831,-0.1831,-0.1831,-0.181,-0.181,-0.1809,-0.1808,-0.1753,-0.1752,-0.1751,0,0,0,0,0,0,0,0,0,0,0,0,0,-0.1718,-0.1719,-0.1802,-0.1803,-0.1804,-0.1831,-0.1831,-0.1831,-0.181,-0.1809,-0.1809,-0.1808,-0.1753,-0.1752,-0.1751,0,0,0,0,0,0,0,0,0,0,0,0,0,-0.1748,-0.172,-0.1802,-0.1799,-0.1799,-0.1831,-0.1831,-0.1831,-0.181,-0.1809,-0.1809,-0.1808,-0.1754,-0.1753,-0.1751,-0.1762,0,0,-0.1747,-0.1747,0,0,0,0,0,0,0,0,-0.1747,-0.1751,-0.1799,-0.1799,-0.18,-0.1819,-0.1781,-0.1805,-0.1811,-0.1803,-0.1808,-0.1807,-0.177,-0.1767,-0.1772,-0.1759,-0.1757,-0.1747,-0.1746,-0.1746,-0.1745,0,0,0,0,0,0,0,-0.1744,-0.175,-0.181,-0.18,-0.18,-0.1792,-0.1795,-0.1786,-0.1787,-0.1803,-0.1803,-0.1811,-0.1769,-0.1773,-0.177,-0.1756,-0.1747,-0.1746,-0.1745,-0.1745,-0.172,-0.172,0,0,0,0,0,0,-0.1749,-0.1748,-0.181,-0.1812,-0.1774,-0.1795,-0.1798,-0.1811,-0.1789,-0.1787,-0.1812,-0.181,-0.1776,-0.1772,-0.1768,-0.1751,-0.1746,-0.1744,-0.1744,-0.172,-0.172,-0.172,0,0,0,0,0,0,-0.1748,-0.1755,-0.1809,-0.1782,-0.1789,-0.1797,-0.1812,-0.1812,-0.1814,-0.1797,-0.1792,-0.1814,-0.1775,-0.177,-0.1757,-0.1749,-0.1744,-0.1743,-0.172,-0.172,-0.172,-0.1734,0,0,0,0,0,0,-0.1745,-0.1754,-0.176,-0.1783,-0.1791,-0.1833,-0.1813,-0.1813,-0.1822,-0.182,-0.1797,-0.1791,-0.1774,-0.1759,-0.1755,-0.1747,-0.1742,-0.1719,-0.172,-0.172,-0.1733,-0.1735,-0.1736,0,0,0,0,0,-0.1742,-0.1758,-0.176,-0.1767,-0.18,-0.1834,-0.1838,-0.1837,-0.1823,-0.1833,-0.181,-0.1792,-0.1757,-0.1758,-0.1754,-0.1745,-0.1719,-0.172,-0.172,-0.1733,-0.1734,-0.1736,0,0,0,0,0,0,-0.1717,-0.1759,-0.1761,-0.1786,-0.1811,-0.1832,-0.184,-0.1841,-0.1833,-0.1823,-0.1798,-0.1791,-0.1772,-0.1764,-0.1765,-0.1739,-0.1734,-0.1734,-0.1745,-0.1747,-0.1748,-0.1756,-0.1741,0,0,0,0,0,-0.1718,-0.174,-0.1777,-0.1792,-0.181,-0.1824,-0.1835,-0.184,-0.1841,-0.1837,-0.1821,-0.1798,-0.1773,-0.1764,-0.1746,-0.174,-0.1756,-0.1731,-0.1732,-0.1733,-0.1738,-0.177,-0.1775,-0.1721,-0.1721,-0.1721,0,0,-0.1708,-0.1735,-0.1744,-0.1788,-0.1804,-0.1825,-0.1827,-0.1851,-0.1851,-0.1831,-0.1819,-0.1801,-0.1772,-0.1757,-0.1748,-0.1748,-0.1757,-0.1734,-0.1735,-0.1739,-0.1771,-0.1776,-0.1781,-0.1721,-0.1721,-0.1721,0,0,-0.1705,-0.1731,-0.1749,-0.1775,-0.1812,-0.1827,-0.1836,-0.1863,-0.1859,-0.1857,-0.183,-0.1815,-0.1788,-0.1769,-0.1751,-0.1753,-0.1759,-0.1743,-0.1758,-0.1789,-0.1794,-0.1799,-0.1829,-0.1837,-0.1747,-0.1747,-0.1747,0,-0.1689,-0.1718,-0.1757,-0.1781,-0.18,-0.1827,-0.1846,-0.1851,-0.1863,-0.1869,-0.1852,-0.1826,-0.1792,-0.1777,-0.1763,-0.1754,-0.1778,-0.1753,-0.1792,-0.1797,-0.1802,-0.1832,-0.1839,-0.1748,-0.1748,-0.1748,-0.1748,0,-0.1697,-0.172,-0.1736,-0.1773,-0.1801,-0.1824,-0.185,-0.1868,-0.1866,-0.1872,-0.1869,-0.1839,-0.1827,-0.1807,-0.1774,-0.1785,-0.1794,-0.1788,-0.1791,-0.1808,-0.1838,-0.1846,-0.1749,-0.1749,-0.1748,-0.1748,0,0,-0.1653,-0.1727,-0.1726,-0.1758,-0.18,-0.1835,-0.1843,-0.1876,-0.1907,-0.1893,-0.1924,-0.1857,-0.186,-0.1841,-0.1814,-0.1827,-0.1858,-0.1817,-0.1819,-0.1852,-0.1937,-0.18,-0.1796,-0.1867,-0.1869,-0.187,-0.1947,0,-0.164,-0.1682,-0.1723,-0.1764,-0.1793,-0.1839,-0.1866,-0.1898,-0.1916,-0.1957,-0.1929,-0.1936,-0.1867,-0.1871,-0.1868,-0.1865,-0.188,-0.1838,-0.1912,-0.1914,-0.1794,-0.18,-0.1687,-0.1734,-0.1955,-0.1956,-0.1957,0,-0.162,-0.1659,-0.1683,-0.1791,-0.1813,-0.1841,-0.192,-0.1946,-0.1998,-0.202,-0.2023,-0.2019,-0.2005,-0.1962,-0.1965,-0.1947,-0.1935,-0.1936,-0.1939,-0.1811,-0.179,-0.1751,-0.174,-0.1732,-0.197,-0.1969,-0.1968,0,-0.1554,-0.164,-0.1659,-0.1682,-0.1788,-0.1823,-0.1884,-0.1951,-0.1991,-0.2053,-0.209,-0.2098,-0.2093,-0.2092,-0.2023,-0.2021,-0.2045,-0.2051,-0.1926,-0.1918,-0.1833,-0.1812,-0.1822,-0.2072,-0.2072,-0.2071,-0.2071,0,-0.1509,-0.1535,-0.1637,-0.1643,-0.1723,-0.1804,-0.1883,-0.195,-0.2035,-0.2051,-0.2104,-0.2095,-0.2124,-0.2114,-0.2078,-0.1996,-0.2081,-0.1927,-0.1923,-0.1831,-0.1811,-0.1806,-0.1821,-0.2074,-0.2074,-0.2073,-0.2073,0,-0.1411,-0.1461,-0.1516,-0.1636,-0.1679,-0.1731,-0.1879,-0.1913,-0.2022,-0.2043,-0.2056,-0.2113,-0.2072,-0.2086,-0.2089,-0.2038,-0.1956,-0.1956,-0.1833,-0.1809,-0.1665,-0.1684,-0.1676,-0.1641,-0.1865,-0.1862,-0.1859,0,-0.1362,-0.1361,-0.1488,-0.15,-0.1545,-0.1645,-0.1684,-0.1858,-0.1874,-0.1988,-0.1954,-0.199,-0.191,-0.1902,-0.1852,-0.1817,-0.1823,-0.1709,-0.1659,-0.1629,-0.1652,-0.167,-0.1645,-0.1579,-0.1574,-0.1571,-0.1568,0,-0.1254,-0.1287,-0.1311,-0.1361,-0.1402,-0.1486,-0.1555,-0.16,-0.1729,-0.1763,-0.1732,-0.1709,-0.1695,-0.1593,-0.1587,-0.1547,-0.1648,-0.1624,-0.1647,-0.1455,-0.1429,-0.1401,-0.1569,-0.1534,-0.1537,-0.154,-0.1541,-0.1543,-0.115,-0.1145,-0.1157,-0.1196,-0.1236,-0.1259,-0.1264,-0.1328,-0.1363,-0.1364,-0.1447,-0.1378,-0.1385,-0.1335,-0.1325,-0.1292,-0.1358,-0.1266,-0.1307,-0.1341,-0.1242,-0.1307,-0.1216,-0.1217,-0.1219,-0.122,-0.1221,0,-0.1018,-0.0991,-0.099,-0.101,-0.0978,-0.1078,-0.1098,-0.1037,-0.0984,-0.1052,-0.1031,-0.1031,-0.0983,-0.1039,-0.1044,-0.1015,-0.1043,-0.1014,-0.1058,-0.106,-0.1165,-0.1081,-0.089,-0.089,-0.089,-0.089,-0.089,-0.089,-0.0932,-0.0856,-0.0854,-0.0741,-0.074,-0.0675,-0.0655,-0.0586,-0.0582,-0.0537,-0.0577,-0.0616,-0.0765,-0.0905,-0.0921,-0.0899,-0.0938,-0.0865,-0.0945,-0.1056,-0.1085,-0.1113,-0.1038,-0.0841,-0.0841,-0.0793,-0.0793,-0.0793]},{"header":{"parameterUnit":"m.s-1","parameterCategory":2,"la1":30.2991,"la2":30.254,"lo1":-89.0895,"lo2":-89.0444,"dy":0.0017,"dx":0.0017,"nx":28,"ny":28,"refTime":"2024-04-17T03:00:00:Z","depth":"0","parameterNumber":3,"parameterNumberName":"V-component_of_CURRENTS"},"data":[0,0,0,0,0,0,0,0,0,0,0,0,0,0,0,0,0,0,0,0,0,0,0,0,0,0,0,0,0,0,0,0,0,0,0,0,0,0,0,0,0,0,0,0,0,0,0,0,0,0,0,0,0,0,0,0,0,0,-0.008,-0.0079,0,0.0004,0.0006,0.0007,0.0044,0.0043,0.0043,0.0043,0.0154,0.0157,0.016,0,0,0,0,0,0,0,0,0,0,0,0,0,-0.0099,-0.0099,-0.008,-0.0079,-0.0078,0.0004,0.0006,0.0007,0.0044,0.0043,0.0043,0.0043,0.0153,0.0157,0.0161,0,0,0,0,0,0,0,0,0,0,0,0,0,-0.0059,-0.0099,-0.008,-0.0051,-0.0048,0.0004,0.0006,0.0007,0.0044,0.0043,0.0043,0.0042,0.0152,0.0157,0.0161,0.02,0,0,0.0176,0.0178,0,0,0,0,0,0,0,0,-0.0061,-0.0058,-0.0056,-0.0053,-0.0049,0.0011,0.004,0.0072,0.0044,0.0011,0.0043,0.0042,0.0108,0.0117,0.0135,0.0205,0.021,0.0177,0.0179,0.0182,0.0183,0,0,0,0,0,0,0,-0.0064,-0.0061,-0.0045,-0.0055,-0.0051,-0.0005,-0.0,0.0047,0.0063,0.0014,0.0016,0.0023,0.011,0.0131,0.0138,0.0211,0.0176,0.0181,0.0184,0.0186,0.0325,0.0325,0,0,0,0,0,0,-0.0084,-0.0064,-0.0047,-0.0042,-0.0058,-0.0005,0.0,-0.0006,0.0062,0.0071,0.0023,0.0024,0.0123,0.0133,0.0142,0.0184,0.0182,0.0186,0.0189,0.0324,0.0325,0.0326,0,0,0,0,0,0,-0.0085,-0.0083,-0.0051,-0.0052,-0.0044,-0.0005,-0.0012,-0.0004,0.0014,0.0068,0.0078,0.0032,0.0123,0.0136,0.0189,0.0188,0.0188,0.0193,0.0323,0.0324,0.0325,0.0272,0,0,0,0,0,0,-0.0086,-0.0085,-0.0096,-0.0054,-0.0045,-0.0024,-0.0011,-0.0002,0.0018,0.002,0.008,0.009,0.0123,0.0181,0.0194,0.0195,0.0196,0.0322,0.0323,0.0325,0.0272,0.0271,0.0269,0,0,0,0,0,-0.0087,-0.0103,-0.0097,-0.0095,-0.0063,-0.0024,-0.0015,0.0014,0.0018,0.0028,0.0072,0.0088,0.0199,0.0186,0.02,0.0203,0.0321,0.0323,0.0325,0.0273,0.0271,0.0269,0,0,0,0,0,0,-0.0122,-0.0099,-0.0092,-0.0103,-0.0068,-0.0018,-0.0009,0.0012,0.0055,0.0057,0.0104,0.0118,0.0163,0.0197,0.0181,0.0249,0.0261,0.0265,0.0217,0.0215,0.0214,0.019,0.02,0,0,0,0,0,-0.0135,-0.0141,-0.0103,-0.0112,-0.0096,-0.0053,-0.0035,-0.0011,0.0032,0.0049,0.0093,0.0141,0.0183,0.0208,0.0255,0.0296,0.031,0.0307,0.0306,0.0304,0.0296,0.0305,0.0302,0.0331,0.0331,0.0331,0,0,-0.0154,-0.0141,-0.0146,-0.0119,-0.0091,-0.0064,-0.0043,-0.0014,0.0008,0.0057,0.01,0.014,0.0194,0.0238,0.026,0.0264,0.0308,0.0306,0.0304,0.0297,0.0306,0.0303,0.03,0.0333,0.0332,0.0332,0,0,-0.018,-0.0178,-0.0182,-0.0151,-0.011,-0.0077,-0.0072,-0.0017,0.0006,0.0057,0.0091,0.0127,0.0205,0.0234,0.0259,0.028,0.03,0.0299,0.0271,0.028,0.0277,0.0274,0.03,0.03,0.0297,0.0297,0.0296,0,-0.0203,-0.0204,-0.0175,-0.0158,-0.0139,-0.0087,-0.0074,-0.0035,0.0031,0.0044,0.0065,0.0154,0.02,0.0233,0.0242,0.0274,0.0287,0.0268,0.0274,0.0272,0.027,0.0297,0.0298,0.0294,0.0294,0.0295,0.0295,0,-0.0222,-0.0214,-0.021,-0.0176,-0.015,-0.0128,-0.0073,-0.0043,-0.0009,0.0026,0.0069,0.0131,0.0175,0.0198,0.023,0.0241,0.0259,0.0268,0.0268,0.0263,0.0293,0.0295,0.0291,0.0292,0.0292,0.0293,0,0,-0.0285,-0.0237,-0.0233,-0.0224,-0.0158,-0.0143,-0.0103,-0.0063,-0.0053,0.0013,0.0022,0.0098,0.0118,0.0148,0.0188,0.0202,0.021,0.0226,0.0228,0.0234,0.0239,0.0301,0.0309,0.0212,0.0212,0.0211,0.0269,0,-0.0306,-0.0296,-0.0258,-0.024,-0.0229,-0.0172,-0.0146,-0.0102,-0.0056,-0.0028,0.0023,0.0058,0.0104,0.0118,0.0139,0.0196,0.021,0.0194,0.0259,0.0262,0.0301,0.0311,0.0333,0.039,0.027,0.0271,0.0271,0,-0.0326,-0.0319,-0.0314,-0.0285,-0.0276,-0.0257,-0.0224,-0.0191,-0.0133,-0.0101,-0.006,-0.0013,0.0033,0.0063,0.0142,0.0129,0.0175,0.0216,0.0219,0.0293,0.0326,0.0377,0.0398,0.0475,0.0273,0.0273,0.0273,0,-0.0385,-0.0356,-0.0363,-0.0347,-0.0302,-0.03,-0.0278,-0.0222,-0.0207,-0.015,-0.0129,-0.007,-0.0029,0.0024,0.0138,0.0129,0.0224,0.0221,0.0319,0.0324,0.0365,0.0375,0.0452,0.0254,0.0254,0.0253,0.0253,0,-0.0413,-0.0413,-0.0397,-0.0396,-0.0418,-0.0363,-0.0371,-0.0332,-0.0288,-0.0252,-0.0179,-0.0129,-0.0038,0.0043,0.0118,0.0244,0.0212,0.0317,0.0341,0.0352,0.036,0.0447,0.0469,0.0256,0.0255,0.0255,0.0254,0,-0.0449,-0.0436,-0.045,-0.0438,-0.0441,-0.0457,-0.0439,-0.0436,-0.0374,-0.0324,-0.0306,-0.0184,-0.0048,0.0055,0.017,0.0237,0.0387,0.0379,0.0402,0.0428,0.0582,0.0599,0.0688,0.0734,0.0481,0.0483,0.0484,0,-0.0457,-0.047,-0.05,-0.0519,-0.0511,-0.0527,-0.0533,-0.0493,-0.0468,-0.0329,-0.0303,-0.0163,-0.0019,0.0175,0.0307,0.0445,0.0482,0.053,0.0514,0.0601,0.0637,0.0637,0.0668,0.0552,0.0554,0.0556,0.0557,0,-0.0468,-0.049,-0.0506,-0.0559,-0.0583,-0.0613,-0.0603,-0.0603,-0.0506,-0.0407,-0.0236,-0.0111,0.0103,0.0299,0.0468,0.054,0.0587,0.0568,0.0641,0.069,0.0708,0.0761,0.0515,0.0571,0.057,0.0569,0.0568,0.0567,-0.0472,-0.05,-0.053,-0.0577,-0.0618,-0.0647,-0.0642,-0.0578,-0.0494,-0.0252,-0.0159,0.0144,0.0294,0.0554,0.0631,0.078,0.0734,0.0809,0.0821,0.0811,0.0862,0.0664,0.0758,0.0758,0.0758,0.0758,0.0757,0,-0.0449,-0.0483,-0.0535,-0.058,-0.0618,-0.0643,-0.0639,-0.0578,-0.0413,-0.0138,0.0107,0.0468,0.0655,0.0791,0.0948,0.1025,0.1012,0.1048,0.1038,0.1056,0.0871,0.0882,0.1028,0.1028,0.1028,0.1028,0.1028,0.1028,-0.0431,-0.0469,-0.0504,-0.0551,-0.0579,-0.0583,-0.0569,-0.0447,-0.0264,0.0153,0.0507,0.0757,0.0899,0.1086,0.1231,0.1232,0.1288,0.1265,0.1305,0.1166,0.1144,0.1122,0.1139,0.1336,0.1337,0.1478,0.1479,0.148]}],[{"header":{"parameterUnit":"m.s-1","parameterCategory":2,"la1":30.2991,"la2":30.254,"lo1":-89.0895,"lo2":-89.0444,"dy":0.0017,"dx":0.0017,"nx":28,"ny":28,"refTime":"2024-04-17T03:00:00:Z","depth":"2","parameterNumber":2,"parameterNumberName":"U-component_of_CURRENTS"},"data":[0,0,0,0,0,0,0,0,0,0,0,0,0,0,0,0,0,0,0,0,0,0,0,0,0,0,0,0,0,0,0,0,0,0,0,0,0,0,0,0,0,0,0,0,0,0,0,0,0,0,0,0,0,0,0,0,0,0,-0.1559,-0.1559,0,-0.1539,-0.1538,-0.1538,-0.1551,-0.1551,-0.1552,-0.1553,-0.1545,-0.1544,-0.1543,0,0,0,0,0,0,0,0,0,0,0,0,0,-0.1493,-0.1495,-0.1559,-0.1559,-0.1559,-0.1539,-0.1538,-0.1538,-0.1551,-0.1551,-0.1552,-0.1553,-0.1545,-0.1544,-0.1543,0,0,0,0,0,0,0,0,0,0,0,0,0,-0.1501,-0.1495,-0.1559,-0.1564,-0.1564,-0.1539,-0.1538,-0.1538,-0.155,-0.1551,-0.1553,-0.1554,-0.1546,-0.1545,-0.1543,-0.1513,0,0,-0.1539,-0.1538,0,0,0,0,0,0,0,0,-0.1501,-0.1503,-0.1563,-0.1563,-0.1564,-0.155,-0.1512,-0.1531,-0.155,-0.1554,-0.1553,-0.1554,-0.1548,-0.1547,-0.1538,-0.1512,-0.1512,-0.1539,-0.1538,-0.1538,-0.1537,0,0,0,0,0,0,0,-0.15,-0.1503,-0.1549,-0.1563,-0.1563,-0.1528,-0.1531,-0.1515,-0.1544,-0.1554,-0.1555,-0.1555,-0.1548,-0.1539,-0.1538,-0.1512,-0.1539,-0.1538,-0.1537,-0.1536,-0.1478,-0.1477,0,0,0,0,0,0,-0.1511,-0.1504,-0.155,-0.1549,-0.1536,-0.1529,-0.1532,-0.1552,-0.1544,-0.1544,-0.1554,-0.1556,-0.1541,-0.1539,-0.1538,-0.1501,-0.1538,-0.1536,-0.1536,-0.1479,-0.1478,-0.1477,0,0,0,0,0,0,-0.151,-0.1516,-0.1551,-0.1525,-0.1528,-0.153,-0.1551,-0.1551,-0.156,-0.1544,-0.1545,-0.1566,-0.1542,-0.154,-0.1529,-0.1501,-0.1536,-0.1534,-0.148,-0.1479,-0.1478,-0.1428,0,0,0,0,0,0,-0.1509,-0.1516,-0.1535,-0.1527,-0.153,-0.1544,-0.155,-0.155,-0.1558,-0.1561,-0.1554,-0.1554,-0.1542,-0.1531,-0.1528,-0.15,-0.1533,-0.1481,-0.1479,-0.1478,-0.1431,-0.1425,-0.1421,0,0,0,0,0,-0.1507,-0.1535,-0.1537,-0.1542,-0.1557,-0.1544,-0.1542,-0.1544,-0.1558,-0.1558,-0.1552,-0.1555,-0.152,-0.153,-0.1526,-0.1497,-0.1481,-0.148,-0.1478,-0.1433,-0.1426,-0.1421,0,0,0,0,0,0,-0.1517,-0.1538,-0.1541,-0.1575,-0.1562,-0.1548,-0.1555,-0.1553,-0.1547,-0.1562,-0.1546,-0.1544,-0.1522,-0.1522,-0.1533,-0.1478,-0.1501,-0.1498,-0.1468,-0.1462,-0.1457,-0.149,-0.1532,0,0,0,0,0,-0.1527,-0.1553,-0.1552,-0.1574,-0.1578,-0.1567,-0.1566,-0.1567,-0.156,-0.1561,-0.1549,-0.1537,-0.1507,-0.1498,-0.1483,-0.1453,-0.1504,-0.1433,-0.1429,-0.1424,-0.145,-0.1529,-0.1535,-0.1472,-0.1472,-0.1472,0,0,-0.1531,-0.1549,-0.1561,-0.1576,-0.1573,-0.1558,-0.157,-0.1578,-0.1554,-0.1559,-0.1536,-0.1525,-0.1499,-0.1462,-0.1452,-0.146,-0.1458,-0.1422,-0.1418,-0.1447,-0.1528,-0.1535,-0.1541,-0.1471,-0.1471,-0.1471,0,0,-0.1536,-0.1575,-0.1588,-0.158,-0.1585,-0.1573,-0.1579,-0.1572,-0.1566,-0.154,-0.1529,-0.1505,-0.1474,-0.1435,-0.1413,-0.1375,-0.1435,-0.1373,-0.1368,-0.1443,-0.145,-0.1457,-0.1489,-0.15,-0.1366,-0.1365,-0.1365,0,-0.1537,-0.1563,-0.1583,-0.1581,-0.1586,-0.158,-0.158,-0.155,-0.1533,-0.1556,-0.1535,-0.1517,-0.1452,-0.1428,-0.1377,-0.1361,-0.1427,-0.1386,-0.144,-0.1448,-0.1456,-0.1488,-0.1501,-0.1363,-0.1363,-0.1363,-0.1364,0,-0.1532,-0.1554,-0.1563,-0.1561,-0.1563,-0.1568,-0.1542,-0.1548,-0.1546,-0.1537,-0.1545,-0.1476,-0.1482,-0.1423,-0.1363,-0.1377,-0.141,-0.143,-0.146,-0.146,-0.1492,-0.1506,-0.1359,-0.136,-0.1361,-0.1361,0,0,-0.1523,-0.1557,-0.1555,-0.1582,-0.1568,-0.1582,-0.1557,-0.1567,-0.1608,-0.1563,-0.1617,-0.1484,-0.1505,-0.1479,-0.1424,-0.1432,-0.1453,-0.1442,-0.1447,-0.1482,-0.1627,-0.1461,-0.146,-0.1518,-0.1521,-0.1524,-0.1612,0,-0.1511,-0.153,-0.1544,-0.1561,-0.158,-0.1597,-0.1593,-0.1606,-0.1612,-0.1652,-0.1608,-0.161,-0.1508,-0.151,-0.1504,-0.1478,-0.1497,-0.1427,-0.1616,-0.162,-0.1481,-0.1472,-0.1346,-0.14,-0.1626,-0.1628,-0.163,0,-0.1484,-0.152,-0.1533,-0.163,-0.1647,-0.1642,-0.1724,-0.1717,-0.1754,-0.1778,-0.1799,-0.1783,-0.1731,-0.1668,-0.1673,-0.1656,-0.1637,-0.1619,-0.1624,-0.1508,-0.148,-0.1445,-0.1417,-0.1653,-0.1651,-0.165,-0.1648,0,-0.1467,-0.1523,-0.1551,-0.1561,-0.1632,-0.1672,-0.1714,-0.1763,-0.179,-0.1851,-0.1878,-0.191,-0.1869,-0.1907,-0.1762,-0.1772,-0.1793,-0.1818,-0.1669,-0.1658,-0.1602,-0.1578,-0.1879,-0.1879,-0.1879,-0.1879,-0.1879,0,-0.1445,-0.1475,-0.1553,-0.1561,-0.1647,-0.1699,-0.1782,-0.1832,-0.1899,-0.1899,-0.1928,-0.1899,-0.1931,-0.1902,-0.1857,-0.1756,-0.1876,-0.1673,-0.1676,-0.1569,-0.1543,-0.1815,-0.1806,-0.1882,-0.1881,-0.1881,-0.188,0,-0.1389,-0.1425,-0.148,-0.1585,-0.162,-0.1675,-0.1789,-0.1825,-0.1903,-0.1896,-0.1902,-0.1911,-0.1851,-0.1852,-0.1864,-0.181,-0.1781,-0.1722,-0.1549,-0.1527,-0.1594,-0.1582,-0.1648,-0.1643,-0.1639,-0.1635,-0.1632,0,-0.1359,-0.1368,-0.1472,-0.1483,-0.1516,-0.1612,-0.1643,-0.1786,-0.1776,-0.1829,-0.1768,-0.1771,-0.1663,-0.1637,-0.1594,-0.1574,-0.163,-0.1441,-0.1408,-0.1578,-0.1575,-0.1569,-0.1563,-0.132,-0.1315,-0.1311,-0.1307,0,-0.1295,-0.1314,-0.1342,-0.139,-0.142,-0.1488,-0.1526,-0.1544,-0.1626,-0.1626,-0.1545,-0.1506,-0.1442,-0.1337,-0.1312,-0.1279,-0.1445,-0.1347,-0.163,-0.1355,-0.1264,-0.1262,-0.1269,-0.1269,-0.1273,-0.1276,-0.1278,-0.1279,-0.1219,-0.122,-0.1237,-0.1283,-0.1303,-0.1303,-0.1316,-0.1317,-0.1325,-0.1269,-0.1291,-0.1189,-0.1201,-0.1072,-0.1031,-0.1036,-0.1137,-0.1128,-0.1146,-0.1167,-0.107,-0.0972,-0.0903,-0.0905,-0.0906,-0.0907,-0.0909,0,-0.1141,-0.112,-0.1131,-0.1174,-0.1153,-0.1209,-0.1174,-0.1134,-0.1055,-0.1029,-0.0973,-0.0852,-0.0785,-0.0813,-0.0754,-0.0758,-0.0809,-0.0739,-0.0816,-0.0852,-0.0884,-0.0778,-0.0532,-0.0531,-0.053,-0.053,0,0,-0.1084,-0.1053,-0.1071,-0.102,-0.1018,-0.0941,-0.0888,-0.0813,-0.0761,-0.0671,-0.063,-0.0688,-0.0727,-0.0608,-0.0606,-0.0554,-0.07,-0.0528,-0.0822,-0.0943,-0.0974,-0.1088,-0.0958,0,0,0,0,0]},{"header":{"parameterUnit":"m.s-1","parameterCategory":2,"la1":30.2991,"la2":30.254,"lo1":-89.0895,"lo2":-89.0444,"dy":0.0017,"dx":0.0017,"nx":28,"ny":28,"refTime":"2024-04-17T03:00:00:Z","depth":"2","parameterNumber":3,"parameterNumberName":"V-component_of_CURRENTS"},"data":[0,0,0,0,0,0,0,0,0,0,0,0,0,0,0,0,0,0,0,0,0,0,0,0,0,0,0,0,0,0,0,0,0,0,0,0,0,0,0,0,0,0,0,0,0,0,0,0,0,0,0,0,0,0,0,0,0,0,-0.0357,-0.0357,0,-0.0345,-0.0345,-0.0345,-0.0284,-0.0283,-0.0281,-0.028,-0.0135,-0.0132,-0.013,0,0,0,0,0,0,0,0,0,0,0,0,0,-0.0406,-0.0405,-0.0357,-0.0357,-0.0357,-0.0345,-0.0345,-0.0345,-0.0284,-0.0283,-0.0281,-0.0279,-0.0135,-0.0132,-0.0129,0,0,0,0,0,0,0,0,0,0,0,0,0,-0.0388,-0.0404,-0.0357,-0.0325,-0.0322,-0.0345,-0.0345,-0.0345,-0.0285,-0.0283,-0.028,-0.0278,-0.0136,-0.0133,-0.0129,-0.015,0,0,-0.0118,-0.0116,0,0,0,0,0,0,0,0,-0.0389,-0.0387,-0.033,-0.0327,-0.0324,-0.0314,-0.0309,-0.0273,-0.0285,-0.0299,-0.028,-0.0277,-0.0184,-0.0176,-0.0181,-0.0144,-0.0137,-0.0117,-0.0115,-0.0113,-0.0112,0,0,0,0,0,0,0,-0.039,-0.0387,-0.0353,-0.033,-0.0326,-0.0338,-0.0332,-0.0303,-0.0252,-0.0298,-0.0293,-0.0292,-0.0181,-0.0185,-0.0177,-0.0135,-0.0117,-0.0114,-0.0112,-0.011,-0.0035,-0.0035,0,0,0,0,0,0,-0.039,-0.0388,-0.0353,-0.0352,-0.0351,-0.0339,-0.0332,-0.0319,-0.0255,-0.0244,-0.0294,-0.0289,-0.0192,-0.0181,-0.0171,-0.013,-0.0113,-0.011,-0.0108,-0.0035,-0.0035,-0.0035,0,0,0,0,0,0,-0.0391,-0.0386,-0.0353,-0.0371,-0.0367,-0.0339,-0.0326,-0.032,-0.0299,-0.0253,-0.0239,-0.0275,-0.019,-0.0176,-0.0131,-0.0125,-0.0108,-0.0105,-0.0034,-0.0035,-0.0035,-0.0086,0,0,0,0,0,0,-0.0392,-0.0386,-0.0373,-0.037,-0.0366,-0.0359,-0.0328,-0.0322,-0.0303,-0.0296,-0.0233,-0.0219,-0.0187,-0.0138,-0.0128,-0.012,-0.0102,-0.0034,-0.0035,-0.0035,-0.0084,-0.0088,-0.0092,0,0,0,0,0,-0.0393,-0.0384,-0.0372,-0.0368,-0.0349,-0.0359,-0.0359,-0.0333,-0.0304,-0.0303,-0.0257,-0.022,-0.0133,-0.0135,-0.0124,-0.0114,-0.0034,-0.0034,-0.0035,-0.0083,-0.0088,-0.0092,0,0,0,0,0,0,-0.0408,-0.0377,-0.0364,-0.0346,-0.035,-0.0348,-0.0341,-0.0328,-0.0296,-0.0273,-0.0225,-0.021,-0.0166,-0.0138,-0.0142,-0.0095,-0.0076,-0.0075,-0.0117,-0.0121,-0.0124,-0.0102,-0.0099,0,0,0,0,0,-0.0405,-0.038,-0.0373,-0.0362,-0.0357,-0.0348,-0.0345,-0.0331,-0.0308,-0.029,-0.0247,-0.02,-0.0168,-0.0141,-0.0107,-0.0085,-0.0046,-0.0071,-0.0075,-0.0078,-0.0052,-0.0011,-0.0009,-0.0037,-0.0037,-0.0037,0,0,-0.0415,-0.039,-0.0381,-0.0363,-0.0356,-0.0352,-0.0339,-0.0332,-0.0317,-0.0279,-0.0231,-0.0207,-0.0165,-0.0138,-0.0117,-0.0108,-0.0053,-0.0079,-0.0082,-0.0053,-0.0011,-0.0009,-0.0006,-0.0037,-0.0037,-0.0037,0,0,-0.0431,-0.0393,-0.0384,-0.0376,-0.0361,-0.035,-0.0344,-0.0331,-0.0308,-0.0285,-0.0247,-0.0219,-0.0171,-0.0143,-0.0123,-0.0126,-0.0074,-0.0117,-0.0115,-0.0077,-0.0074,-0.0071,-0.0034,-0.0027,-0.012,-0.012,-0.012,0,-0.045,-0.042,-0.0391,-0.0381,-0.0364,-0.0344,-0.0338,-0.0324,-0.0297,-0.0272,-0.0267,-0.0196,-0.0171,-0.0129,-0.0137,-0.0132,-0.01,-0.0105,-0.0082,-0.0077,-0.0073,-0.0036,-0.0027,-0.0123,-0.0122,-0.0122,-0.0122,0,-0.0463,-0.0432,-0.0426,-0.039,-0.0374,-0.0365,-0.0338,-0.0312,-0.0281,-0.0266,-0.0217,-0.0198,-0.0153,-0.0155,-0.0148,-0.0108,-0.0093,-0.0093,-0.007,-0.0073,-0.0034,-0.0024,-0.0126,-0.0125,-0.0125,-0.0124,0,0,-0.0527,-0.0449,-0.0447,-0.0423,-0.0368,-0.0367,-0.0318,-0.0281,-0.0254,-0.0225,-0.0191,-0.016,-0.0147,-0.0124,-0.0115,-0.009,-0.006,-0.0082,-0.0079,-0.0045,0.0031,0.0047,0.0059,-0.0056,-0.0055,-0.0053,0.004,0,-0.0549,-0.052,-0.0466,-0.0439,-0.0419,-0.0357,-0.0327,-0.0286,-0.0245,-0.0211,-0.0173,-0.015,-0.0137,-0.0135,-0.0101,-0.0072,-0.0032,-0.0084,0.0031,0.0035,0.0049,0.0072,0.0053,0.0136,0.005,0.0052,0.0053,0,-0.0585,-0.0546,-0.0518,-0.0444,-0.0432,-0.0414,-0.0338,-0.0313,-0.0246,-0.0217,-0.0162,-0.0136,-0.0088,-0.0096,0.0001,-0.0032,0.0009,0.0033,0.0037,0.0087,0.007,0.0129,0.0158,0.007,0.0069,0.0067,0.0066,0,-0.065,-0.0586,-0.0553,-0.0531,-0.0454,-0.0424,-0.0388,-0.0318,-0.0295,-0.0225,-0.0198,-0.0125,-0.01,-0.0029,0.0034,0.0017,0.0137,0.0116,0.0183,0.0184,0.0213,0.0214,0.0205,0.0205,0.0204,0.0204,0.0204,0,-0.069,-0.067,-0.0585,-0.0574,-0.0551,-0.0478,-0.0456,-0.0403,-0.034,-0.0299,-0.0219,-0.0167,-0.0082,-0.0003,0.0052,0.0159,0.0162,0.0209,0.0219,0.0192,0.019,0.017,0.0164,0.0208,0.0207,0.0206,0.0206,0,-0.0774,-0.0713,-0.0686,-0.0605,-0.0585,-0.0579,-0.052,-0.0504,-0.0421,-0.0358,-0.0337,-0.0205,-0.0082,0.0014,0.0127,0.0181,0.0268,0.0306,0.0269,0.0274,0.0285,0.0276,0.0394,0.0395,0.0396,0.0397,0.0398,0,-0.0809,-0.0803,-0.0739,-0.0733,-0.0697,-0.0672,-0.0656,-0.0571,-0.0525,-0.0367,-0.033,-0.0194,-0.0068,0.0111,0.022,0.0347,0.0329,0.0392,0.036,0.0312,0.031,0.0298,0.0287,0.037,0.0371,0.0371,0.0372,0,-0.088,-0.0862,-0.0839,-0.0831,-0.0814,-0.0798,-0.0742,-0.0716,-0.0579,-0.0467,-0.0297,-0.0188,0.0017,0.0167,0.032,0.0379,0.0365,0.0406,0.0386,0.0318,0.0296,0.0291,0.0281,0.0376,0.0376,0.0376,0.0375,0.0375,-0.0939,-0.0955,-0.0932,-0.093,-0.0918,-0.0902,-0.088,-0.0772,-0.0669,-0.0458,-0.0318,-0.0114,0.0042,0.0264,0.0372,0.0446,0.0444,0.0445,0.0441,0.0437,0.0411,0.0391,0.0485,0.0485,0.0485,0.0485,0.0485,0,-0.1005,-0.1018,-0.1028,-0.1029,-0.1032,-0.1002,-0.0918,-0.0849,-0.0692,-0.0474,-0.0273,-0.0062,0.0122,0.0256,0.0396,0.0491,0.0465,0.0482,0.0433,0.0429,0.0425,0.0395,0.0467,0.0467,0.0467,0.0467,0,0,-0.1038,-0.1079,-0.1087,-0.1123,-0.1119,-0.1081,-0.1022,-0.0886,-0.0707,-0.046,-0.0277,-0.0074,0.0119,0.0215,0.0341,0.0404,0.038,0.0396,0.0402,0.0324,0.0319,0.0397,0.0347,0,0,0,0,0]}],[{"header":{"parameterUnit":"m.s-1","parameterCategory":2,"la1":30.2991,"la2":30.254,"lo1":-89.0895,"lo2":-89.0444,"dy":0.0017,"dx":0.0017,"nx":28,"ny":28,"refTime":"2024-04-17T03:00:00:Z","depth":"4","parameterNumber":2,"parameterNumberName":"U-component_of_CURRENTS"},"data":[0,0,0,0,0,0,0,0,0,0,0,0,0,0,0,0,0,0,0,0,0,0,0,0,0,0,0,0,0,0,0,0,0,0,0,0,0,0,0,0,0,0,0,0,0,0,0,0,0,0,0,0,0,0,0,0,0,0,-0.0526,-0.0526,0,-0.0517,-0.0517,-0.0516,-0.0501,-0.0501,-0.0501,-0.0501,-0.0464,-0.0463,-0.0462,0,0,0,0,0,0,0,0,0,0,0,0,0,-0.0528,-0.0528,-0.0526,-0.0526,-0.0526,-0.0517,-0.0517,-0.0516,-0.0501,-0.0501,-0.0501,-0.0501,-0.0464,-0.0463,-0.0462,0,0,0,0,0,0,0,0,0,0,0,0,0,-0.0522,-0.0528,-0.0526,-0.0519,-0.0518,-0.0517,-0.0517,-0.0516,-0.0501,-0.0501,-0.0501,-0.0501,-0.0465,-0.0463,-0.0462,-0.0457,0,0,-0.0458,-0.0457,0,0,0,0,0,0,0,0,-0.0522,-0.0522,-0.052,-0.0519,-0.0519,-0.0512,-0.0504,-0.0496,-0.0502,-0.0506,-0.0501,-0.0501,-0.0479,-0.0476,-0.0473,-0.0455,-0.0453,-0.0458,-0.0457,-0.0456,-0.0456,0,0,0,0,0,0,0,-0.0523,-0.0522,-0.052,-0.052,-0.0519,-0.0516,-0.0514,-0.0502,-0.0491,-0.0505,-0.0505,-0.0507,-0.0478,-0.0474,-0.0471,-0.0453,-0.0458,-0.0457,-0.0456,-0.0455,-0.0453,-0.0453,0,0,0,0,0,0,-0.0528,-0.0522,-0.0521,-0.052,-0.0522,-0.0516,-0.0515,-0.0513,-0.0492,-0.0489,-0.0507,-0.0506,-0.0476,-0.0473,-0.047,-0.0482,-0.0456,-0.0455,-0.0454,-0.0452,-0.0453,-0.0453,0,0,0,0,0,0,-0.0528,-0.0528,-0.0521,-0.0523,-0.0522,-0.0516,-0.0514,-0.0513,-0.0516,-0.0494,-0.049,-0.0513,-0.0476,-0.0472,-0.0466,-0.048,-0.0455,-0.0453,-0.0451,-0.0452,-0.0453,-0.0494,0,0,0,0,0,0,-0.0528,-0.0528,-0.0528,-0.0523,-0.0522,-0.0525,-0.0514,-0.0513,-0.0518,-0.0517,-0.0498,-0.0494,-0.0476,-0.0468,-0.0465,-0.0478,-0.0452,-0.045,-0.0451,-0.0453,-0.0492,-0.0496,-0.05,0,0,0,0,0,-0.0528,-0.0529,-0.0528,-0.0528,-0.0523,-0.0525,-0.0525,-0.0519,-0.0519,-0.0521,-0.051,-0.0495,-0.0475,-0.0467,-0.0463,-0.0476,-0.0449,-0.0451,-0.0453,-0.049,-0.0495,-0.05,0,0,0,0,0,0,-0.0529,-0.0528,-0.0526,-0.0527,-0.0529,-0.0524,-0.0527,-0.0526,-0.052,-0.0521,-0.0499,-0.0495,-0.0496,-0.0482,-0.0474,-0.0481,-0.0461,-0.0462,-0.0491,-0.0496,-0.0501,-0.0503,-0.0451,0,0,0,0,0,-0.0531,-0.0532,-0.0532,-0.0533,-0.0537,-0.0535,-0.0536,-0.0536,-0.0531,-0.0528,-0.0519,-0.0509,-0.0499,-0.0494,-0.0484,-0.0484,-0.0484,-0.0492,-0.0496,-0.05,-0.05,-0.0524,-0.0531,-0.0459,-0.0459,-0.0459,0,0,-0.0533,-0.0532,-0.0533,-0.0534,-0.0536,-0.0543,-0.0535,-0.0544,-0.0552,-0.0525,-0.0535,-0.0523,-0.0503,-0.0504,-0.0504,-0.0494,-0.0521,-0.0502,-0.0505,-0.0503,-0.0527,-0.0534,-0.054,-0.046,-0.046,-0.046,0,0,-0.0539,-0.0538,-0.0543,-0.0546,-0.0553,-0.0555,-0.0562,-0.0566,-0.057,-0.0577,-0.0562,-0.0557,-0.0548,-0.0534,-0.0525,-0.0546,-0.0544,-0.0552,-0.0573,-0.0597,-0.0603,-0.0608,-0.062,-0.0626,-0.0553,-0.0553,-0.0553,0,-0.054,-0.0547,-0.0546,-0.0552,-0.056,-0.0564,-0.0577,-0.058,-0.0584,-0.0591,-0.0587,-0.0577,-0.056,-0.0553,-0.0563,-0.0555,-0.0571,-0.0554,-0.0603,-0.0608,-0.0613,-0.0623,-0.0629,-0.0555,-0.0555,-0.0555,-0.0554,0,-0.0546,-0.0558,-0.0564,-0.0573,-0.0581,-0.0594,-0.0603,-0.0616,-0.0626,-0.0629,-0.0636,-0.0614,-0.0608,-0.0604,-0.059,-0.0614,-0.0614,-0.0608,-0.0591,-0.0623,-0.0631,-0.0637,-0.0558,-0.0557,-0.0557,-0.0556,0,0,-0.0525,-0.0562,-0.0562,-0.0583,-0.0597,-0.0608,-0.0626,-0.0644,-0.0672,-0.0663,-0.0691,-0.0662,-0.0659,-0.0648,-0.0631,-0.0644,-0.0689,-0.0648,-0.0649,-0.066,-0.0747,-0.0718,-0.0722,-0.0704,-0.0705,-0.0706,-0.0739,0,-0.053,-0.0557,-0.0571,-0.0606,-0.0625,-0.064,-0.0666,-0.0682,-0.0701,-0.0732,-0.0704,-0.0727,-0.0674,-0.0692,-0.0688,-0.068,-0.0707,-0.0681,-0.0712,-0.0712,-0.0685,-0.0728,-0.071,-0.0743,-0.0744,-0.0745,-0.0746,0,-0.0518,-0.0547,-0.0582,-0.0644,-0.0654,-0.0677,-0.0726,-0.075,-0.0781,-0.0799,-0.0795,-0.0798,-0.0781,-0.0769,-0.0745,-0.0736,-0.0756,-0.0753,-0.0755,-0.0717,-0.0695,-0.0703,-0.0756,-0.0755,-0.0755,-0.0754,-0.0753,0,-0.0495,-0.055,-0.0585,-0.0599,-0.0664,-0.0692,-0.0727,-0.0768,-0.0809,-0.0853,-0.0897,-0.0862,-0.0879,-0.0856,-0.0837,-0.0808,-0.0849,-0.0803,-0.0796,-0.0794,-0.079,-0.0783,-0.0848,-0.0848,-0.0848,-0.0847,-0.0847,0,-0.0479,-0.0509,-0.0586,-0.0602,-0.0663,-0.0705,-0.0772,-0.0802,-0.0872,-0.0926,-0.0935,-0.0961,-0.0917,-0.093,-0.0883,-0.0848,-0.0881,-0.0809,-0.0807,-0.0806,-0.0801,-0.0794,-0.0787,-0.0849,-0.0848,-0.0848,-0.0848,0,-0.0431,-0.0482,-0.0532,-0.0617,-0.0651,-0.0689,-0.0798,-0.0851,-0.0921,-0.0996,-0.1024,-0.1053,-0.1033,-0.1008,-0.0992,-0.0924,-0.0892,-0.0905,-0.0922,-0.0919,-0.0802,-0.0797,-0.0842,-0.0841,-0.0841,-0.084,-0.084,0,-0.0413,-0.0429,-0.0524,-0.0564,-0.0606,-0.0685,-0.0749,-0.0849,-0.0915,-0.1029,-0.1064,-0.1111,-0.1108,-0.1025,-0.0999,-0.093,-0.0929,-0.0927,-0.0832,-0.0811,-0.0804,-0.08,-0.0796,-0.0839,-0.0839,-0.0839,-0.0839,0,-0.0364,-0.0392,-0.0418,-0.051,-0.0586,-0.0674,-0.0777,-0.0831,-0.0954,-0.1044,-0.1066,-0.1055,-0.1058,-0.0974,-0.0988,-0.0927,-0.0905,-0.092,-0.0919,-0.0829,-0.0808,-0.0801,-0.0798,-0.0837,-0.0837,-0.0837,-0.0838,0,-0.0312,-0.031,-0.0354,-0.0428,-0.0531,-0.0627,-0.0696,-0.0785,-0.0862,-0.1009,-0.1004,-0.1017,-0.1049,-0.098,-0.096,-0.0923,-0.0864,-0.0814,-0.0817,-0.0819,-0.0794,-0.0762,-0.0786,0,0,0,0,0,-0.0259,-0.0241,-0.0287,-0.037,-0.0479,-0.0546,-0.0701,-0.078,-0.0927,-0.0921,-0.0963,-0.0951,-0.0909,-0.0902,-0.0845,-0.093,-0.0869,-0.0863,-0.0813,-0.0828,-0.083,-0.0801,0,0,0,0,0,0,-0.0221,-0.0226,-0.0239,-0.031,-0.0366,-0.0489,-0.0582,-0.0686,-0.0697,-0.0823,-0.0788,-0.0879,-0.083,-0.0896,-0.0806,-0.0813,-0.0763,-0.0884,-0.0881,-0.0826,-0.0828,-0.083,-0.0801,0,0,0,0,0]},{"header":{"parameterUnit":"m.s-1","parameterCategory":2,"la1":30.2991,"la2":30.254,"lo1":-89.0895,"lo2":-89.0444,"dy":0.0017,"dx":0.0017,"nx":28,"ny":28,"refTime":"2024-04-17T03:00:00:Z","depth":"4","parameterNumber":3,"parameterNumberName":"V-component_of_CURRENTS"},"data":[0,0,0,0,0,0,0,0,0,0,0,0,0,0,0,0,0,0,0,0,0,0,0,0,0,0,0,0,0,0,0,0,0,0,0,0,0,0,0,0,0,0,0,0,0,0,0,0,0,0,0,0,0,0,0,0,0,0,-0.0112,-0.0112,0,-0.0116,-0.0116,-0.0116,-0.0116,-0.0116,-0.0116,-0.0116,-0.0104,-0.0103,-0.0103,0,0,0,0,0,0,0,0,0,0,0,0,0,-0.0078,-0.0079,-0.0112,-0.0112,-0.0112,-0.0116,-0.0116,-0.0116,-0.0116,-0.0116,-0.0116,-0.0116,-0.0104,-0.0103,-0.0103,0,0,0,0,0,0,0,0,0,0,0,0,0,-0.0088,-0.0079,-0.0112,-0.0113,-0.0113,-0.0116,-0.0116,-0.0116,-0.0116,-0.0116,-0.0116,-0.0116,-0.0104,-0.0103,-0.0103,-0.0102,0,0,-0.0102,-0.0102,0,0,0,0,0,0,0,0,-0.0088,-0.009,-0.0112,-0.0112,-0.0113,-0.0115,-0.0099,-0.011,-0.0116,-0.0115,-0.0116,-0.0116,-0.0106,-0.0105,-0.0107,-0.0101,-0.0101,-0.0102,-0.0101,-0.0101,-0.0101,0,0,0,0,0,0,0,-0.0087,-0.0089,-0.0113,-0.0112,-0.0113,-0.0103,-0.0105,-0.0101,-0.0111,-0.0115,-0.0115,-0.0115,-0.0106,-0.0107,-0.0106,-0.0101,-0.0102,-0.0101,-0.0101,-0.0101,-0.008,-0.008,0,0,0,0,0,0,-0.0088,-0.0089,-0.0113,-0.0114,-0.01,-0.0104,-0.0106,-0.0115,-0.0111,-0.011,-0.0115,-0.0115,-0.0108,-0.0107,-0.0106,-0.0089,-0.0101,-0.0101,-0.0101,-0.008,-0.008,-0.008,0,0,0,0,0,0,-0.0088,-0.0091,-0.0113,-0.0101,-0.0103,-0.0105,-0.0114,-0.0115,-0.0119,-0.0111,-0.0111,-0.0119,-0.0108,-0.0106,-0.0105,-0.0089,-0.0101,-0.01,-0.0081,-0.008,-0.008,-0.0064,0,0,0,0,0,0,-0.0087,-0.0091,-0.0097,-0.0101,-0.0104,-0.0119,-0.0115,-0.0115,-0.0119,-0.0119,-0.0115,-0.0113,-0.0108,-0.0105,-0.0104,-0.0088,-0.01,-0.0081,-0.008,-0.008,-0.0065,-0.0063,-0.0062,0,0,0,0,0,-0.0086,-0.0099,-0.0098,-0.0101,-0.0113,-0.0119,-0.012,-0.0121,-0.0119,-0.0123,-0.0119,-0.0114,-0.0101,-0.0105,-0.0104,-0.0087,-0.0081,-0.0081,-0.008,-0.0066,-0.0064,-0.0062,0,0,0,0,0,0,-0.0089,-0.0101,-0.0099,-0.0116,-0.0117,-0.0119,-0.0125,-0.0123,-0.0123,-0.0125,-0.0115,-0.0114,-0.0104,-0.0102,-0.0107,-0.008,-0.0088,-0.0087,-0.0077,-0.0075,-0.0074,-0.0054,-0.01,0,0,0,0,0,-0.0092,-0.0106,-0.0109,-0.0122,-0.0124,-0.0124,-0.0126,-0.0128,-0.0128,-0.0128,-0.0122,-0.0113,-0.01,-0.0094,-0.0088,-0.0077,-0.0059,-0.0065,-0.0063,-0.0061,-0.0045,0.001,0.0019,-0.0077,-0.0077,-0.0077,0,0,-0.0097,-0.0104,-0.0112,-0.0123,-0.0125,-0.0126,-0.0125,-0.0134,-0.0126,-0.0126,-0.0117,-0.0111,-0.0097,-0.0082,-0.0077,-0.0079,-0.0032,-0.0061,-0.0059,-0.0043,0.0012,0.0021,0.003,-0.0077,-0.0077,-0.0077,0,0,-0.0113,-0.012,-0.0135,-0.0136,-0.0142,-0.0135,-0.0138,-0.014,-0.0132,-0.0127,-0.0116,-0.0101,-0.0093,-0.007,-0.0058,-0.0044,-0.0027,-0.0044,-0.0015,0.0037,0.0046,0.0054,0.0058,0.0066,-0.004,-0.004,-0.004,0,-0.0117,-0.0136,-0.0139,-0.0149,-0.0145,-0.0139,-0.0143,-0.0132,-0.013,-0.0111,-0.0124,-0.0086,-0.008,-0.0038,-0.0029,-0.0037,-0.0018,-0.0025,0.0041,0.005,0.0058,0.006,0.007,-0.004,-0.004,-0.004,-0.004,0,-0.0143,-0.0152,-0.016,-0.0165,-0.016,-0.0166,-0.0147,-0.0135,-0.0123,-0.0104,-0.007,-0.0062,-0.0033,-0.0029,-0.0023,0.0039,0.0028,0.0035,0.0039,0.0069,0.0068,0.0078,-0.0038,-0.0039,-0.0039,-0.0039,0,0,-0.0162,-0.0176,-0.0178,-0.0178,-0.0168,-0.0168,-0.0141,-0.0109,-0.008,-0.0069,-0.0029,-0.0001,0.0012,0.0027,0.0036,0.0084,0.0143,0.009,0.0092,0.0099,0.0233,0.0194,0.02,0.0172,0.0174,0.0176,0.0198,0,-0.0177,-0.0204,-0.0195,-0.0196,-0.0203,-0.0172,-0.0144,-0.011,-0.0074,-0.0034,0.0001,0.0031,0.0032,0.0043,0.0096,0.0123,0.0174,0.0134,0.02,0.0201,0.0169,0.0213,0.0184,0.0205,0.0207,0.0209,0.021,0,-0.0201,-0.0214,-0.0231,-0.0209,-0.0206,-0.0197,-0.014,-0.0114,-0.0042,-0.0014,0.0036,0.0062,0.0114,0.0117,0.0198,0.0174,0.0219,0.0245,0.0246,0.0219,0.0182,0.0177,0.0227,0.0226,0.0224,0.0223,0.0222,0,-0.0224,-0.0229,-0.0243,-0.0242,-0.0221,-0.0205,-0.0179,-0.0112,-0.0084,-0.0002,0.0019,0.0095,0.0108,0.0187,0.0226,0.0227,0.0315,0.0315,0.0324,0.0319,0.0339,0.033,0.0417,0.0417,0.0416,0.0416,0.0416,0,-0.0243,-0.0251,-0.026,-0.0271,-0.027,-0.0233,-0.0204,-0.0161,-0.0096,-0.0062,0.0017,0.0048,0.0137,0.0188,0.0243,0.0292,0.0326,0.0344,0.0341,0.0337,0.0328,0.0343,0.0334,0.0417,0.0417,0.0417,0.0417,0,-0.0272,-0.0279,-0.03,-0.0293,-0.0291,-0.0292,-0.0252,-0.0225,-0.0157,-0.0113,-0.0093,0.0008,0.0077,0.015,0.0259,0.0288,0.0353,0.0375,0.0334,0.0325,0.0315,0.0307,0.0387,0.0386,0.0385,0.0385,0.0384,0,-0.0288,-0.0309,-0.0338,-0.0357,-0.0361,-0.0353,-0.0345,-0.0276,-0.0251,-0.0144,-0.0136,-0.004,0.0027,0.0133,0.0223,0.0318,0.0343,0.0363,0.0385,0.0333,0.0322,0.0314,0.0307,0.0383,0.0383,0.0383,0.0383,0,-0.0316,-0.0339,-0.0361,-0.0413,-0.0427,-0.0432,-0.0416,-0.0406,-0.0316,-0.0259,-0.0159,-0.0061,0.002,0.0124,0.0198,0.0273,0.0339,0.0357,0.0359,0.038,0.033,0.0317,0.0311,0.038,0.0381,0.0381,0.0381,0,-0.0334,-0.0367,-0.041,-0.0445,-0.0482,-0.05,-0.0483,-0.0437,-0.0394,-0.0269,-0.024,-0.0103,-0.0011,0.01,0.0166,0.0232,0.0259,0.0279,0.0286,0.0289,0.0258,0.0179,0.0198,0,0,0,0,0,-0.034,-0.0375,-0.0428,-0.0474,-0.052,-0.0531,-0.0523,-0.0493,-0.0418,-0.0357,-0.0287,-0.0195,-0.0042,0.0033,0.0093,0.0131,0.0242,0.02,0.0261,0.0368,0.037,0.0348,0,0,0,0,0,0,-0.0343,-0.0395,-0.0428,-0.0492,-0.0527,-0.0563,-0.056,-0.0513,-0.0468,-0.0377,-0.0298,-0.0194,-0.0059,-0.0077,0.0092,0.0116,0.0159,0.0289,0.0289,0.0366,0.0369,0.0371,0.0349,0,0,0,0,0]}]]